Location: Bratsk-Energetik
(56.3300°N, 101.7600°E)
Time: 20:16:44
(UTC+08:00)

ISS - Pass Details

Date: 29 March 2017
Orbit: 399 x 409 km, 51.6° (Epoch: 23 March)

Event Time Altitude Azimuth Distance (km) Brightness Sun altitude
Rises 21:30:36 0° 219° (SW) 2,308 0.1 -14.5°
Reaches altitude 10° 21:33:04 10° 200° (SSW) 1,454 -1.1 -14.8°
Enters shadow 21:34:16 16° 181° (S) 1,159 -1.8 -15.0°
